�N����,�ō��C��,����
2014/1/1,15.5,10689
2014/1/2,12.1,10222
2014/1/3,8.5,11219
2014/1/4,11.7,9910
2014/1/5,7.3,12392
2014/1/6,10.5,10581
2014/1/7,9.9,11534
2014/1/8,12.8,9726
2014/1/9,11.8,12606
2014/1/10,6.8,4984
2014/1/11,9,6404
2014/1/12,9.5,9598
2014/1/13,8.3,8792
2014/1/14,7.7,3709
2014/1/15,4.4,5627
2014/1/16,9.1,11223
2014/1/17,9.5,9913
2014/1/18,8.6,8150
2014/1/19,7.1,9731
2014/1/20,8.5,11498
2014/1/21,11.8,12819
2014/1/22,9.6,11768
2014/1/23,11.1,8731
2014/1/24,12.6,8562
2014/1/25,12.4,10655
2014/1/26,14.5,10438
2014/1/27,7.5,4549
2014/1/28,15,10077
2014/1/29,12.8,6845
2014/1/30,15.8,12393
2014/1/31,15.9,10044
2014/2/1,12.3,11629
2014/2/2,13.3,11065
2014/2/3,17.8,11651
2014/2/4,11.8,5352
2014/2/5,5.2,8629
2014/2/6,6.2,8164
2014/2/7,7.2,8885
2014/2/8,4,4909
2014/2/9,9.2,10200
2014/2/10,8.7,8753
2014/2/11,4.6,8316
2014/2/12,8.2,5440
2014/2/13,8.2,11142
2014/2/14,5.4,6399
2014/2/15,6.9,5441
2014/2/16,10,9992
2014/2/17,12.9,11110
2014/2/18,8.8,12461
2014/2/19,9,10931
2014/2/20,7.6,10313
2014/2/21,10.3,4862
2014/2/22,9.5,9798
2014/2/23,8.3,6662
2014/2/24,8.8,11804
2014/2/25,12.9,4712
2014/2/26,14.2,13253
2014/2/27,13.7,10072
2014/2/28,18.6,14723
2014/3/1,12.7,11791
2014/3/2,7.2,6715
2014/3/3,10.9,12785
2014/3/4,10.9,9091
2014/3/5,9.3,5628
2014/3/6,9,3300
2014/3/7,9.2,8884
2014/3/8,10.2,11475
2014/3/9,9.9,14045
2014/3/10,8.8,6768
2014/3/11,11.1,7891
2014/3/12,16.6,12894
2014/3/13,18.2,17645
2014/3/14,13.4,9700
2014/3/15,12,9842
2014/3/16,17.5,9763
2014/3/17,16.8,9566
2014/3/18,20.3,13982
2014/3/19,13.5,9457
2014/3/20,10.4,6453
2014/3/21,14.5,9694
2014/3/22,14,9135
2014/3/23,16.8,13802
2014/3/24,18.5,11119
2014/3/25,22.3,11458
2014/3/26,19.4,12318
2014/3/27,15.4,9491
2014/3/28,20.2,11694
2014/3/29,22.2,15085
2014/3/30,19.3,11907
2014/3/31,20.1,12048
2014/4/1,18.1,12879
2014/4/2,19.6,12594
2014/4/3,15.6,8513
2014/4/4,22,17257
2014/4/5,14.9,7639
2014/4/6,13.4,12338
2014/4/7,16.5,13237
2014/4/8,22.3,15475
2014/4/9,20.4,15114
2014/4/10,22.9,10726
2014/4/11,18.7,11593
2014/4/12,20,15930
2014/4/13,18.7,16169
2014/4/14,17.6,11206
2014/4/15,20.6,14068
2014/4/16,23.3,16383
2014/4/17,21.8,13920
2014/4/18,18.2,15028
2014/4/19,17.9,11960
2014/4/20,14.1,10598
2014/4/21,17.5,11315
2014/4/22,20,14140
2014/4/23,21.3,12721
2014/4/24,21.7,16454
2014/4/25,22.5,16862
2014/4/26,23.9,12479
2014/4/27,22.7,13121
2014/4/28,23.2,15094
2014/4/29,20.6,15236
2014/4/30,18.5,12022
2014/5/1,24.5,16729
2014/5/2,25.6,18249
2014/5/3,25.6,13843
2014/5/4,23,11735
2014/5/5,20.7,11231
2014/5/6,18,12340
2014/5/7,21.5,12270
2014/5/8,21.5,14010
2014/5/9,26.8,16086
2014/5/10,24.9,13908
2014/5/11,25.3,12982
2014/5/12,23.3,13699
2014/5/13,22.7,13664
2014/5/14,27.2,17603
2014/5/15,21.9,16112
2014/5/16,25.7,15795
2014/5/17,26.2,24386
2014/5/18,25.2,13689
2014/5/19,25.7,19217
2014/5/20,25.6,17088
2014/5/21,19.5,15640
2014/5/22,22.8,11425
2014/5/23,21.7,11816
2014/5/24,25.4,23797
2014/5/25,27.3,26606
2014/5/26,24.6,14594
2014/5/27,26.5,26335
2014/5/28,27.7,31622
2014/5/29,27.5,24304
2014/5/30,29,35937
2014/5/31,31.6,50079
2014/6/1,33.1,54859
2014/6/2,31.4,52873
2014/6/3,28.9,34995
2014/6/4,29.4,41241
2014/6/5,23.3,12088
2014/6/6,20.9,10890
2014/6/7,19.2,13730
2014/6/8,22.4,13492
2014/6/9,25.6,17343
2014/6/10,27.8,28162
2014/6/11,24.4,14505
2014/6/12,23.7,14556
2014/6/13,30.3,41270
2014/6/14,29.4,34957
2014/6/15,29.6,37500
2014/6/16,29.8,36069
2014/6/17,27.8,30495
2014/6/18,25.1,16136
2014/6/19,28.5,28283
2014/6/20,27.9,26732
2014/6/21,27.7,26326
2014/6/22,23.6,10008
2014/6/23,27.8,24648
2014/6/24,26.6,19944
2014/6/25,26.2,21594
2014/6/26,28.2,31001
2014/6/27,26.2,24997
2014/6/28,24.8,14201
2014/6/29,28.9,32221
2014/6/30,27.3,30263
2014/7/1,29.6,42117
2014/7/2,30.3,45743
2014/7/3,27.5,30601
2014/7/4,23.4,10523
2014/7/5,24.3,13381
2014/7/6,28.5,25305
2014/7/7,24.9,12217
2014/7/8,31.5,47915
2014/7/9,25.7,23616
2014/7/10,29.7,35458
2014/7/11,34.2,60164
2014/7/12,32.8,53439
2014/7/13,28,32407
2014/7/14,32.9,50926
2014/7/15,32.5,50896
2014/7/16,32.3,51179
2014/7/17,31.8,47437
2014/7/18,27.5,27075
2014/7/19,26.4,13111
2014/7/20,29.9,34853
2014/7/21,28.8,34958
2014/7/22,31.2,47201
2014/7/23,33.1,49174
2014/7/24,34.6,58150
2014/7/25,35.6,67836
2014/7/26,34.6,61898
2014/7/27,34.5,59115
2014/7/28,30.7,38677
2014/7/29,31.8,50289
2014/7/30,31.8,48300
2014/7/31,33.9,64489
2014/8/1,33.5,55784
2014/8/2,35.3,72095
2014/8/3,35.5,65089
2014/8/4,34.7,64012
2014/8/5,36.1,66851
2014/8/6,35.7,66998
2014/8/7,34.2,58509
2014/8/8,31.7,46269
2014/8/9,27.8,26276
2014/8/10,29.4,32654
2014/8/11,32.9,57167
2014/8/12,29.6,41170
2014/8/13,31.5,53044
2014/8/14,30.1,38435
2014/8/15,33.6,57118
2014/8/16,31.2,43135
2014/8/17,30.8,47861
2014/8/18,33.6,56673
2014/8/19,34.7,63099
2014/8/20,34.5,60659
2014/8/21,34.1,58956
2014/8/22,34.6,61634
2014/8/23,30.3,43809
2014/8/24,32.1,50204
2014/8/25,29.3,37676
2014/8/26,26.9,24332
2014/8/27,23.4,13188
2014/8/28,23,18894
2014/8/29,26.2,19505
2014/8/30,26.1,24411
2014/8/31,25.7,15162
2014/9/1,23.8,10438
2014/9/2,29.8,35292
2014/9/3,27.3,29652
2014/9/4,27.7,30887
2014/9/5,31.6,51120
2014/9/6,31.1,43476
2014/9/7,24.4,15544
2014/9/8,24.4,17568
2014/9/9,28.1,29548
2014/9/10,26.9,17103
2014/9/11,23.2,13370
2014/9/12,27.5,28138
2014/9/13,27.3,23339
2014/9/14,28.7,32079
2014/9/15,26,18319
2014/9/16,29.5,34533
2014/9/17,26.1,17370
2014/9/18,25.9,22689
2014/9/19,25.6,17632
2014/9/20,22.3,10612
2014/9/21,26.7,30291
2014/9/22,27.2,30896
2014/9/23,26.4,27154
2014/9/24,25.9,19146
2014/9/25,28.5,31155
2014/9/26,28.1,31892
2014/9/27,23.5,13732
2014/9/28,27,19286
2014/9/29,28.3,35169
2014/9/30,29.1,39969
2014/10/1,24.6,14876
2014/10/2,24.7,18357
2014/10/3,29.8,38063
2014/10/4,25.7,17956
2014/10/5,22.4,14217
2014/10/6,28.4,29643
2014/10/7,24,15070
2014/10/8,24.4,13603
2014/10/9,24,16237
2014/10/10,26.3,18538
2014/10/11,23.5,14158
2014/10/12,20.6,14748
2014/10/13,24,12692
2014/10/14,27.1,23909
2014/10/15,19.1,14778
2014/10/16,21.1,14440
2014/10/17,24,13310
2014/10/18,21.8,14331
2014/10/19,23,15564
2014/10/20,24.1,12706
2014/10/21,21.4,14344
2014/10/22,19.5,11021
2014/10/23,15.5,11872
2014/10/24,20.7,18327
2014/10/25,22.7,12070
2014/10/26,23.9,15134
2014/10/27,23,15178
2014/10/28,20.2,14504
2014/10/29,21.6,13036
2014/10/30,21.8,11468
2014/10/31,20.8,9784
2014/11/1,18.6,10979
2014/11/2,22.4,10562
2014/11/3,21.6,14347
2014/11/4,19.9,13768
2014/11/5,17.6,11532
2014/11/6,21.3,13541
2014/11/7,21.1,13658
2014/11/8,15.4,13348
2014/11/9,17.6,9830
2014/11/10,22.2,17029
2014/11/11,15.8,7451
2014/11/12,16.3,12017
2014/11/13,20.9,14289
2014/11/14,16.8,11904
2014/11/15,17.5,11570
2014/11/16,16.2,11154
2014/11/17,15.1,10712
2014/11/18,16.8,11212
2014/11/19,15.9,12184
2014/11/20,11.6,10962
2014/11/21,16.6,10554
2014/11/22,18.7,10741
2014/11/23,19.1,14078
2014/11/24,15.6,9774
2014/11/25,12.6,9032
2014/11/26,10,9286
2014/11/27,17,9275
2014/11/28,16.3,12362
2014/11/29,19.4,9480
2014/11/30,17.5,14339
2014/12/1,14.9,13739
2014/12/2,14.4,13155
2014/12/3,13.6,6175
2014/12/4,13.2,7757
2014/12/5,13.4,12436
2014/12/6,9.8,9076
2014/12/7,10.8,9985
2014/12/8,11.6,11300
2014/12/9,12.4,12767
2014/12/10,10.8,11448
2014/12/11,16.2,7958
2014/12/12,11.1,8363
2014/12/13,12.7,11681
2014/12/14,8.9,9796
2014/12/15,10.4,7988
2014/12/16,5.3,8719
2014/12/17,9.1,9142
2014/12/18,8.3,7968
2014/12/19,9.5,9653
2014/12/20,7.6,8224
2014/12/21,12.6,11255
2014/12/22,11.4,10151
2014/12/23,11.2,9674
2014/12/24,11.9,14528
2014/12/25,11.5,13078
2014/12/26,10,9851
2014/12/27,8.7,11716
2014/12/28,8,6919
2014/12/29,6.1,7167
2014/12/30,12.2,9727
2014/12/31,12.9,8475
